Time,TemperatureF,DewpointF,PressureIn,WindDirection,WindDirectionDegrees,WindSpeedMPH,WindSpeedGustMPH,Humidity,HourlyPrecipIn,Conditions,Clouds,dailyrainin,SoftwareType,DateUTC
2013-03-13 00:00:00,33.2,27.4,30.01,WSW,240,4.0,8.0,79,0.00,,,0.00,WUHU216DAVISVP2,2013-03-13 04:00:00,
2013-03-13 00:05:00,33.0,27.2,30.01,SSW,197,4.0,8.0,79,0.00,,,0.00,WUHU216DAVISVP2,2013-03-13 04:05:00,
2013-03-13 00:10:00,32.9,27.1,30.01,South,180,2.0,12.0,79,0.00,,,0.00,WUHU216DAVISVP2,2013-03-13 04:10:00,
2013-03-13 00:15:00,32.8,27.3,30.01,SW,228,2.0,12.0,80,0.00,,,0.00,WUHU216DAVISVP2,2013-03-13 04:15:00,
2013-03-13 00:20:00,32.7,27.2,30.01,WSW,242,0.0,10.0,80,0.00,,,0.00,WUHU216DAVISVP2,2013-03-13 04:20:00,
2013-03-13 00:25:00,32.5,27.3,30.01,SSW,203,0.0,10.0,81,0.00,,,0.00,WUHU216DAVISVP2,2013-03-13 04:25:00,
2013-03-13 00:30:00,32.3,26.8,30.01,SSW,207,0.0,6.0,80,0.00,,,0.00,WUHU216DAVISVP2,2013-03-13 04:30:00,
2013-03-13 00:35:00,32.3,27.1,30.01,SW,236,2.0,6.0,81,0.00,,,0.00,WUHU216DAVISVP2,2013-03-13 04:35:00,
2013-03-13 00:41:00,32.3,27.1,30.00,SW,228,2.0,6.0,81,0.00,,,0.00,WUHU216DAVISVP2,2013-03-13 04:41:00,
2013-03-13 00:46:00,32.3,27.1,30.00,SW,232,2.0,12.0,81,0.00,,,0.00,WUHU216DAVISVP2,2013-03-13 04:46:00,
2013-03-13 00:51:00,32.2,27.3,30.00,WNW,300,0.0,12.0,82,0.00,,,0.00,WUHU216DAVISVP2,2013-03-13 04:51:00,
2013-03-13 00:56:00,32.2,27.0,30.00,SW,223,0.0,10.0,81,0.00,,,0.00,WUHU216DAVISVP2,2013-03-13 04:56:00,
2013-03-13 01:01:00,32.2,27.0,30.00,WNW,286,2.0,10.0,81,0.00,,,0.00,WUHU216DAVISVP2,2013-03-13 05:01:00,
2013-03-13 01:06:00,32.3,27.1,30.00,West,268,4.0,10.0,81,0.00,,,0.00,WUHU216DAVISVP2,2013-03-13 05:06:00,
2013-03-13 01:11:00,32.3,27.1,30.00,WSW,257,0.0,10.0,81,0.00,,,0.00,WUHU216DAVISVP2,2013-03-13 05:11:00,
2013-03-13 01:17:00,32.3,27.4,30.00,WSW,254,4.0,8.0,82,0.00,,,0.00,WUHU216DAVISVP2,2013-03-13 05:17:00,
2013-03-13 01:22:00,32.3,27.1,30.00,West,270,2.0,14.0,81,0.00,,,0.00,WUHU216DAVISVP2,2013-03-13 05:22:00,
2013-03-13 01:27:00,32.4,27.2,30.00,West,266,6.0,16.0,81,0.00,,,0.00,WUHU216DAVISVP2,2013-03-13 05:27:00,
2013-03-13 01:32:00,32.4,27.2,30.00,West,268,4.0,16.0,81,0.00,,,0.00,WUHU216DAVISVP2,2013-03-13 05:32:00,
2013-03-13 01:37:00,32.4,26.9,30.00,WSW,242,6.0,18.0,80,0.00,,,0.00,WUHU216DAVISVP2,2013-03-13 05:37:00,
2013-03-13 01:42:00,32.4,26.9,30.00,West,273,6.0,18.0,80,0.00,,,0.00,WUHU216DAVISVP2,2013-03-13 05:42:00,
2013-03-13 01:47:00,32.3,27.1,29.99,WSW,251,0.0,10.0,81,0.00,,,0.00,WUHU216DAVISVP2,2013-03-13 05:47:00,
2013-03-13 01:52:00,32.2,27.0,29.99,West,259,2.0,8.0,81,0.00,,,0.00,WUHU216DAVISVP2,2013-03-13 05:52:00,
2013-03-13 01:57:00,32.1,26.9,29.99,WSW,240,4.0,6.0,81,0.00,,,0.00,WUHU216DAVISVP2,2013-03-13 05:57:00,
2013-03-13 02:02:00,32.0,26.8,29.99,WSW,255,2.0,10.0,81,0.00,,,0.00,WUHU216DAVISVP2,2013-03-13 06:02:00,
2013-03-13 02:07:00,31.9,26.7,29.99,WSW,242,2.0,10.0,81,0.00,,,0.00,WUHU216DAVISVP2,2013-03-13 06:07:00,
2013-03-13 02:13:00,31.9,27.0,29.99,WSW,242,0.0,10.0,82,0.00,,,0.00,WUHU216DAVISVP2,2013-03-13 06:13:00,
2013-03-13 02:18:00,31.9,26.7,29.98,West,275,2.0,8.0,81,0.00,,,0.00,WUHU216DAVISVP2,2013-03-13 06:18:00,
2013-03-13 02:23:00,31.9,26.7,29.98,SSW,196,0.0,8.0,81,0.00,,,0.00,WUHU216DAVISVP2,2013-03-13 06:23:00,
2013-03-13 02:28:00,31.9,27.0,29.98,SSW,196,0.0,4.0,82,0.00,,,0.00,WUHU216DAVISVP2,2013-03-13 06:28:00,
2013-03-13 02:33:00,31.8,26.9,29.98,SW,214,0.0,4.0,82,0.00,,,0.00,WUHU216DAVISVP2,2013-03-13 06:33:00,
2013-03-13 02:38:00,31.7,26.8,29.98,WSW,244,0.0,6.0,82,0.00,,,0.00,WUHU216DAVISVP2,2013-03-13 06:38:00,
2013-03-13 02:43:00,31.6,26.7,29.98,WSW,239,4.0,8.0,82,0.00,,,0.00,WUHU216DAVISVP2,2013-03-13 06:43:00,
2013-03-13 02:48:00,31.6,26.7,29.98,South,190,0.0,8.0,82,0.00,,,0.00,WUHU216DAVISVP2,2013-03-13 06:48:00,
2013-03-13 02:53:00,31.6,26.7,29.98,SW,229,0.0,6.0,82,0.00,,,0.00,WUHU216DAVISVP2,2013-03-13 06:53:00,
2013-03-13 02:58:00,31.6,26.7,29.98,SW,217,0.0,4.0,82,0.00,,,0.00,WUHU216DAVISVP2,2013-03-13 06:58:00,
2013-03-13 03:03:00,31.6,26.4,29.97,South,184,6.0,8.0,81,0.00,,,0.00,WUHU216DAVISVP2,2013-03-13 07:03:00,
2013-03-13 03:08:00,31.6,26.4,29.97,SW,222,6.0,8.0,81,0.00,,,0.00,WUHU216DAVISVP2,2013-03-13 07:08:00,
2013-03-13 03:13:00,31.7,26.5,29.97,SSW,211,0.0,8.0,81,0.00,,,0.00,WUHU216DAVISVP2,2013-03-13 07:13:00,
2013-03-13 03:18:00,31.7,26.8,29.97,SSW,203,0.0,8.0,82,0.00,,,0.00,WUHU216DAVISVP2,2013-03-13 07:18:00,
2013-03-13 03:23:00,31.8,26.6,29.97,SW,227,2.0,4.0,81,0.00,,,0.00,WUHU216DAVISVP2,2013-03-13 07:23:00,
2013-03-13 03:28:00,31.9,26.4,29.97,WSW,240,2.0,8.0,80,0.00,,,0.00,WUHU216DAVISVP2,2013-03-13 07:28:00,
2013-03-13 03:33:00,31.9,26.1,29.97,WSW,254,2.0,12.0,79,0.00,,,0.00,WUHU216DAVISVP2,2013-03-13 07:33:00,
2013-03-13 03:38:00,32.0,26.5,29.97,WSW,238,0.0,12.0,80,0.00,,,0.00,WUHU216DAVISVP2,2013-03-13 07:38:00,
2013-03-13 03:43:00,32.0,26.2,29.96,West,275,0.0,12.0,79,0.00,,,0.00,WUHU216DAVISVP2,2013-03-13 07:43:00,
2013-03-13 03:49:00,32.1,26.6,29.96,WSW,258,6.0,12.0,80,0.00,,,0.00,WUHU216DAVISVP2,2013-03-13 07:49:00,
2013-03-13 03:54:00,32.0,26.5,29.96,West,260,4.0,12.0,80,0.00,,,0.00,WUHU216DAVISVP2,2013-03-13 07:54:00,
2013-03-13 03:59:00,31.9,26.4,29.96,WNW,282,10.0,14.0,80,0.00,,,0.00,WUHU216DAVISVP2,2013-03-13 07:59:00,
2013-03-13 04:04:00,31.8,26.6,29.96,WSW,252,6.0,14.0,81,0.00,,,0.00,WUHU216DAVISVP2,2013-03-13 08:04:00,
2013-03-13 04:09:00,31.8,26.6,29.96,WSW,245,2.0,14.0,81,0.00,,,0.00,WUHU216DAVISVP2,2013-03-13 08:09:00,
2013-03-13 04:14:00,31.7,26.8,29.96,WSW,254,4.0,14.0,82,0.00,,,0.00,WUHU216DAVISVP2,2013-03-13 08:14:00,
2013-03-13 04:19:00,31.6,26.7,29.95,South,182,6.0,12.0,82,0.00,,,0.00,WUHU216DAVISVP2,2013-03-13 08:19:00,
2013-03-13 04:24:00,31.5,26.6,29.95,SW,234,6.0,14.0,82,0.00,,,0.00,WUHU216DAVISVP2,2013-03-13 08:24:00,
2013-03-13 04:29:00,31.4,26.5,29.95,West,275,4.0,14.0,82,0.00,,,0.00,WUHU216DAVISVP2,2013-03-13 08:29:00,
2013-03-13 04:34:00,31.4,26.5,29.95,West,260,8.0,16.0,82,0.00,,,0.00,WUHU216DAVISVP2,2013-03-13 08:34:00,
2013-03-13 04:39:00,31.5,26.6,29.95,West,261,0.0,16.0,82,0.00,,,0.00,WUHU216DAVISVP2,2013-03-13 08:39:00,
2013-03-13 04:44:00,31.5,26.6,29.95,WSW,248,2.0,8.0,82,0.00,,,0.00,WUHU216DAVISVP2,2013-03-13 08:44:00,
2013-03-13 04:49:00,31.6,26.4,29.95,WSW,254,6.0,14.0,81,0.00,,,0.00,WUHU216DAVISVP2,2013-03-13 08:49:00,
2013-03-13 04:54:00,31.8,26.6,29.95,SW,231,4.0,14.0,81,0.00,,,0.00,WUHU216DAVISVP2,2013-03-13 08:54:00,
2013-03-13 04:59:00,31.9,26.7,29.96,SW,222,2.0,8.0,81,0.00,,,0.00,WUHU216DAVISVP2,2013-03-13 08:59:00,
2013-03-13 05:04:00,31.9,26.4,29.95,SW,234,2.0,12.0,80,0.00,,,0.00,WUHU216DAVISVP2,2013-03-13 09:04:00,
2013-03-13 05:09:00,32.1,26.3,29.96,West,267,8.0,12.0,79,0.00,,,0.00,WUHU216DAVISVP2,2013-03-13 09:09:00,
2013-03-13 05:15:00,32.1,26.3,29.95,West,266,6.0,10.0,79,0.00,,,0.00,WUHU216DAVISVP2,2013-03-13 09:15:00,
2013-03-13 05:20:00,32.1,26.0,29.95,West,275,2.0,22.0,78,0.00,,,0.00,WUHU216DAVISVP2,2013-03-13 09:20:00,
2013-03-13 05:25:00,32.1,26.0,29.96,WSW,252,6.0,22.0,78,0.00,,,0.00,WUHU216DAVISVP2,2013-03-13 09:25:00,
2013-03-13 05:30:00,32.1,25.7,29.95,West,267,6.0,20.0,77,0.00,,,0.00,WUHU216DAVISVP2,2013-03-13 09:30:00,
2013-03-13 05:35:00,32.1,25.1,29.96,WSW,244,8.0,20.0,75,0.00,,,0.00,WUHU216DAVISVP2,2013-03-13 09:35:00,
2013-03-13 05:40:00,32.1,25.4,29.95,West,276,8.0,18.0,76,0.00,,,0.00,WUHU216DAVISVP2,2013-03-13 09:40:00,
2013-03-13 05:45:00,32.1,25.4,29.95,WSW,254,8.0,18.0,76,0.00,,,0.00,WUHU216DAVISVP2,2013-03-13 09:45:00,
2013-03-13 05:50:00,32.1,25.4,29.95,WNW,294,6.0,18.0,76,0.00,,,0.00,WUHU216DAVISVP2,2013-03-13 09:50:00,
2013-03-13 05:55:00,32.1,25.7,29.95,WSW,245,8.0,18.0,77,0.00,,,0.00,WUHU216DAVISVP2,2013-03-13 09:55:00,
2013-03-13 06:00:00,32.1,25.7,29.95,SW,224,10.0,14.0,77,0.00,,,0.00,WUHU216DAVISVP2,2013-03-13 10:00:00,
2013-03-13 06:05:00,32.1,25.7,29.95,West,263,4.0,14.0,77,0.00,,,0.00,WUHU216DAVISVP2,2013-03-13 10:05:00,
2013-03-13 06:10:00,32.1,26.0,29.95,NW,316,6.0,14.0,78,0.00,,,0.00,WUHU216DAVISVP2,2013-03-13 10:10:00,
2013-03-13 06:15:00,32.1,26.0,29.95,SSW,200,6.0,18.0,78,0.00,,,0.00,WUHU216DAVISVP2,2013-03-13 10:15:00,
2013-03-13 06:20:00,32.1,26.0,29.95,WNW,283,6.0,18.0,78,0.00,,,0.00,WUHU216DAVISVP2,2013-03-13 10:20:00,
2013-03-13 06:25:00,32.0,26.2,29.95,West,262,6.0,18.0,79,0.00,,,0.00,WUHU216DAVISVP2,2013-03-13 10:25:00,
2013-03-13 06:30:00,31.9,26.4,29.95,West,280,2.0,18.0,80,0.00,,,0.00,WUHU216DAVISVP2,2013-03-13 10:30:00,
2013-03-13 06:35:00,31.8,26.6,29.96,SW,221,4.0,18.0,81,0.00,,,0.00,WUHU216DAVISVP2,2013-03-13 10:35:00,
2013-03-13 06:40:00,31.7,26.5,29.95,WNW,288,2.0,18.0,81,0.00,,,0.00,WUHU216DAVISVP2,2013-03-13 10:40:00,
2013-03-13 06:45:00,31.7,26.5,29.95,WNW,282,4.0,14.0,81,0.00,,,0.00,WUHU216DAVISVP2,2013-03-13 10:45:00,
2013-03-13 06:50:00,31.7,26.5,29.95,West,261,8.0,18.0,81,0.00,,,0.00,WUHU216DAVISVP2,2013-03-13 10:50:00,
2013-03-13 06:55:00,31.7,26.5,29.95,WSW,258,4.0,18.0,81,0.00,,,0.00,WUHU216DAVISVP2,2013-03-13 10:55:00,
2013-03-13 07:00:00,31.7,26.5,29.95,West,269,6.0,16.0,81,0.00,,,0.00,WUHU216DAVISVP2,2013-03-13 11:00:00,
2013-03-13 07:05:00,31.7,26.5,29.95,WNW,291,4.0,16.0,81,0.00,,,0.00,WUHU216DAVISVP2,2013-03-13 11:05:00,
2013-03-13 07:10:00,31.7,26.5,29.95,West,263,4.0,12.0,81,0.00,,,0.00,WUHU216DAVISVP2,2013-03-13 11:10:00,
2013-03-13 07:15:00,31.7,26.2,29.96,West,261,14.0,20.0,80,0.00,,,0.00,WUHU216DAVISVP2,2013-03-13 11:15:00,
2013-03-13 07:21:00,31.7,25.9,29.95,WSW,254,4.0,20.0,79,0.00,,,0.00,WUHU216DAVISVP2,2013-03-13 11:21:00,
2013-03-13 07:26:00,31.7,25.9,29.95,WNW,294,10.0,20.0,79,0.00,,,0.00,WUHU216DAVISVP2,2013-03-13 11:26:00,
2013-03-13 07:31:00,31.7,26.2,29.95,SW,232,4.0,20.0,80,0.00,,,0.00,WUHU216DAVISVP2,2013-03-13 11:31:00,
2013-03-13 07:36:00,31.7,25.9,29.95,West,261,6.0,18.0,79,0.00,,,0.00,WUHU216DAVISVP2,2013-03-13 11:36:00,
2013-03-13 07:41:00,31.7,25.9,29.96,West,267,8.0,16.0,79,0.00,,,0.00,WUHU216DAVISVP2,2013-03-13 11:41:00,
2013-03-13 07:46:00,31.6,25.8,29.96,WNW,289,6.0,16.0,79,0.00,,,0.00,WUHU216DAVISVP2,2013-03-13 11:46:00,
2013-03-13 07:51:00,31.6,25.5,29.96,NNW,328,6.0,20.0,78,0.00,,,0.00,WUHU216DAVISVP2,2013-03-13 11:51:00,
2013-03-13 07:56:00,31.5,25.1,29.96,WNW,302,8.0,20.0,77,0.00,,,0.00,WUHU216DAVISVP2,2013-03-13 11:56:00,
2013-03-13 08:01:00,31.5,25.1,29.96,SW,232,2.0,18.0,77,0.00,,,0.00,WUHU216DAVISVP2,2013-03-13 12:01:00,
2013-03-13 08:07:00,31.5,24.8,29.96,West,280,10.0,22.0,76,0.00,,,0.00,WUHU216DAVISVP2,2013-03-13 12:07:00,
2013-03-13 08:12:00,31.5,24.5,29.97,WNW,283,10.0,22.0,75,0.00,,,0.00,WUHU216DAVISVP2,2013-03-13 12:12:00,
2013-03-13 08:17:00,31.4,24.1,29.97,West,267,14.0,28.0,74,0.00,,,0.00,WUHU216DAVISVP2,2013-03-13 12:17:00,
2013-03-13 08:22:00,31.2,23.3,29.97,West,274,16.0,28.0,72,0.00,,,0.00,WUHU216DAVISVP2,2013-03-13 12:22:00,
2013-03-13 08:27:00,31.0,23.1,29.97,West,274,8.0,22.0,72,0.00,,,0.00,WUHU216DAVISVP2,2013-03-13 12:27:00,
2013-03-13 08:32:00,30.8,23.2,29.97,WNW,303,8.0,18.0,73,0.00,,,0.00,WUHU216DAVISVP2,2013-03-13 12:32:00,
2013-03-13 08:37:00,30.7,23.4,29.97,WNW,294,8.0,22.0,74,0.00,,,0.00,WUHU216DAVISVP2,2013-03-13 12:37:00,
2013-03-13 08:42:00,30.5,23.6,29.97,West,269,16.0,22.0,75,0.00,,,0.00,WUHU216DAVISVP2,2013-03-13 12:42:00,
2013-03-13 08:47:00,30.4,24.4,29.97,WSW,250,14.0,26.0,78,0.00,,,0.00,WUHU216DAVISVP2,2013-03-13 12:47:00,
2013-03-13 08:52:00,30.3,24.9,29.98,WNW,301,8.0,40.0,80,0.00,,,0.00,WUHU216DAVISVP2,2013-03-13 12:52:00,
2013-03-13 08:57:00,30.3,24.9,29.98,West,259,20.0,40.0,80,0.00,,,0.00,WUHU216DAVISVP2,2013-03-13 12:57:00,
2013-03-13 09:02:00,30.3,25.2,29.98,WNW,284,6.0,30.0,81,0.00,,,0.00,WUHU216DAVISVP2,2013-03-13 13:02:00,
2013-03-13 09:07:00,30.2,25.1,29.98,West,268,12.0,24.0,81,0.00,,,0.00,WUHU216DAVISVP2,2013-03-13 13:07:00,
2013-03-13 09:12:00,29.9,24.8,29.98,WNW,294,10.0,28.0,81,0.00,,,0.00,WUHU216DAVISVP2,2013-03-13 13:12:00,
2013-03-13 09:17:00,29.8,24.7,29.99,WNW,282,12.0,28.0,81,0.00,,,0.00,WUHU216DAVISVP2,2013-03-13 13:17:00,
2013-03-13 09:22:00,29.7,24.9,29.99,NW,317,14.0,22.0,82,0.00,,,0.00,WUHU216DAVISVP2,2013-03-13 13:22:00,
2013-03-13 09:28:00,29.7,24.6,29.99,NNW,329,8.0,22.0,81,0.00,,,0.00,WUHU216DAVISVP2,2013-03-13 13:28:00,
2013-03-13 09:33:00,29.8,24.7,29.99,NNW,344,4.0,30.0,81,0.00,,,0.00,WUHU216DAVISVP2,2013-03-13 13:33:00,
2013-03-13 09:38:00,29.9,25.1,29.99,WNW,299,4.0,30.0,82,0.00,,,0.00,WUHU216DAVISVP2,2013-03-13 13:38:00,
2013-03-13 09:43:00,29.7,25.2,29.99,NW,313,14.0,22.0,83,0.00,,,0.00,WUHU216DAVISVP2,2013-03-13 13:43:00,
2013-03-13 09:48:00,29.3,25.3,29.99,West,263,18.0,22.0,85,0.00,,,0.00,WUHU216DAVISVP2,2013-03-13 13:48:00,
2013-03-13 09:53:00,29.3,25.0,29.99,North,355,12.0,20.0,84,0.00,,,0.00,WUHU216DAVISVP2,2013-03-13 13:53:00,
2013-03-13 09:58:00,29.7,24.9,30.00,NW,305,12.0,20.0,82,0.00,,,0.00,WUHU216DAVISVP2,2013-03-13 13:58:00,
2013-03-13 10:03:00,29.9,24.5,30.00,West,276,8.0,24.0,80,0.00,,,0.00,WUHU216DAVISVP2,2013-03-13 14:03:00,
2013-03-13 10:08:00,30.0,24.0,30.00,NW,313,10.0,28.0,78,0.00,,,0.00,WUHU216DAVISVP2,2013-03-13 14:08:00,
2013-03-13 10:13:00,30.0,24.0,30.00,NW,315,8.0,28.0,78,0.00,,,0.00,WUHU216DAVISVP2,2013-03-13 14:13:00,
2013-03-13 10:18:00,30.1,24.1,30.00,NW,304,8.0,22.0,78,0.00,,,0.00,WUHU216DAVISVP2,2013-03-13 14:18:00,
2013-03-13 10:23:00,30.2,24.2,30.00,NW,309,10.0,24.0,78,0.00,,,0.00,WUHU216DAVISVP2,2013-03-13 14:23:00,
2013-03-13 10:28:00,30.2,24.2,30.00,WNW,294,6.0,24.0,78,0.00,,,0.00,WUHU216DAVISVP2,2013-03-13 14:28:00,
2013-03-13 10:33:00,30.3,24.0,30.01,WSW,242,18.0,20.0,77,0.00,,,0.00,WUHU216DAVISVP2,2013-03-13 14:33:00,
2013-03-13 10:38:00,30.3,23.7,30.01,West,274,10.0,20.0,76,0.00,,,0.00,WUHU216DAVISVP2,2013-03-13 14:38:00,
2013-03-13 10:43:00,30.2,23.6,30.01,WSW,252,10.0,22.0,76,0.00,,,0.00,WUHU216DAVISVP2,2013-03-13 14:43:00,
2013-03-13 10:48:00,30.1,23.8,30.01,WNW,289,10.0,26.0,77,0.00,,,0.00,WUHU216DAVISVP2,2013-03-13 14:48:00,
2013-03-13 10:53:00,30.1,23.5,30.01,WNW,287,16.0,34.0,76,0.00,,,0.00,WUHU216DAVISVP2,2013-03-13 14:53:00,
2013-03-13 10:58:00,30.1,24.1,30.01,WNW,297,6.0,34.0,78,0.00,,,0.00,WUHU216DAVISVP2,2013-03-13 14:58:00,
2013-03-13 11:03:00,30.2,24.2,30.01,West,260,4.0,24.0,78,0.00,,,0.00,WUHU216DAVISVP2,2013-03-13 15:03:00,
2013-03-13 11:08:00,30.5,24.5,30.02,WSW,251,12.0,24.0,78,0.00,,,0.00,WUHU216DAVISVP2,2013-03-13 15:08:00,
2013-03-13 11:13:00,30.6,24.3,30.01,WSW,248,14.0,24.0,77,0.00,,,0.00,WUHU216DAVISVP2,2013-03-13 15:13:00,
2013-03-13 11:19:00,30.8,24.8,30.02,North,355,12.0,24.0,78,0.00,,,0.00,WUHU216DAVISVP2,2013-03-13 15:19:00,
2013-03-13 11:24:00,31.2,24.9,30.02,WNW,298,8.0,22.0,77,0.00,,,0.00,WUHU216DAVISVP2,2013-03-13 15:24:00,
2013-03-13 11:29:00,31.6,24.9,30.02,WNW,301,6.0,20.0,76,0.00,,,0.00,WUHU216DAVISVP2,2013-03-13 15:29:00,
2013-03-13 11:34:00,31.5,23.9,30.02,NW,306,14.0,30.0,73,0.00,,,0.00,WUHU216DAVISVP2,2013-03-13 15:34:00,
2013-03-13 11:39:00,31.2,24.2,30.02,West,277,16.0,30.0,75,0.00,,,0.00,WUHU216DAVISVP2,2013-03-13 15:39:00,
2013-03-13 11:44:00,31.0,23.7,30.02,WNW,295,8.0,30.0,74,0.00,,,0.00,WUHU216DAVISVP2,2013-03-13 15:44:00,
2013-03-13 11:49:00,31.0,24.4,30.02,NNW,328,10.0,30.0,76,0.00,,,0.00,WUHU216DAVISVP2,2013-03-13 15:49:00,
2013-03-13 11:54:00,30.6,24.6,30.03,NW,308,18.0,30.0,78,0.00,,,0.00,WUHU216DAVISVP2,2013-03-13 15:54:00,
2013-03-13 11:59:00,30.6,24.6,30.02,WSW,241,12.0,30.0,78,0.00,,,0.00,WUHU216DAVISVP2,2013-03-13 15:59:00,
2013-03-13 12:05:00,30.9,25.5,30.03,West,274,8.0,28.0,80,0.00,,,0.00,WUHU216DAVISVP2,2013-03-13 16:05:00,
2013-03-13 12:10:00,30.2,25.1,30.04,NW,309,24.0,28.0,81,0.00,,,0.00,WUHU216DAVISVP2,2013-03-13 16:10:00,
2013-03-13 12:18:00,27.6,24.2,30.05,WNW,288,14.0,28.0,87,0.00,,,0.00,WUHU216DAVISVP2,2013-03-13 16:18:00,
2013-03-13 12:23:00,27.4,24.5,30.05,NW,321,16.0,24.0,89,0.00,,,0.00,WUHU216DAVISVP2,2013-03-13 16:23:00,
2013-03-13 12:28:00,27.2,24.3,30.04,WNW,284,4.0,20.0,89,0.00,,,0.00,WUHU216DAVISVP2,2013-03-13 16:28:00,
2013-03-13 12:33:00,27.6,24.7,30.05,WNW,294,20.0,24.0,89,0.00,,,0.00,WUHU216DAVISVP2,2013-03-13 16:33:00,
2013-03-13 12:38:00,28.7,23.6,30.05,West,261,14.0,32.0,81,0.00,,,0.00,WUHU216DAVISVP2,2013-03-13 16:38:00,
2013-03-13 12:43:00,29.6,22.1,30.05,WNW,286,12.0,38.0,73,0.00,,,0.00,WUHU216DAVISVP2,2013-03-13 16:43:00,
2013-03-13 12:48:00,30.0,21.1,30.05,WNW,298,16.0,38.0,69,0.00,,,0.00,WUHU216DAVISVP2,2013-03-13 16:48:00,
2013-03-13 12:54:00,30.5,20.9,30.06,West,261,18.0,28.0,67,0.00,,,0.00,WUHU216DAVISVP2,2013-03-13 16:54:00,
2013-03-13 12:59:00,30.2,20.6,30.06,WNW,303,12.0,38.0,67,0.00,,,0.00,WUHU216DAVISVP2,2013-03-13 16:59:00,
2013-03-13 13:04:00,30.3,20.7,30.06,NW,314,24.0,38.0,67,0.00,,,0.00,WUHU216DAVISVP2,2013-03-13 17:04:00,
2013-03-13 13:09:00,29.6,19.3,30.06,WNW,298,28.0,36.0,65,0.00,,,0.00,WUHU216DAVISVP2,2013-03-13 17:09:00,
2013-03-13 13:14:00,29.9,20.7,30.06,WNW,294,6.0,36.0,68,0.00,,,0.00,WUHU216DAVISVP2,2013-03-13 17:14:00,
2013-03-13 13:19:00,29.3,18.7,30.07,West,269,26.0,30.0,64,0.00,,,0.00,WUHU216DAVISVP2,2013-03-13 17:19:00,
2013-03-13 13:24:00,28.9,18.3,30.07,WSW,250,16.0,30.0,64,0.00,,,0.00,WUHU216DAVISVP2,2013-03-13 17:24:00,
2013-03-13 13:29:00,28.7,17.7,30.07,NE,38,6.0,32.0,63,0.00,,,0.00,WUHU216DAVISVP2,2013-03-13 17:29:00,
2013-03-13 13:34:00,28.9,18.3,30.07,NW,312,16.0,32.0,64,0.00,,,0.00,WUHU216DAVISVP2,2013-03-13 17:34:00,
2013-03-13 13:39:00,28.7,18.5,30.07,WNW,292,14.0,26.0,65,0.00,,,0.00,WUHU216DAVISVP2,2013-03-13 17:39:00,
2013-03-13 13:44:00,28.6,18.4,30.07,NW,306,22.0,28.0,65,0.00,,,0.00,WUHU216DAVISVP2,2013-03-13 17:44:00,
2013-03-13 13:49:00,28.6,18.0,30.07,NNW,338,10.0,28.0,64,0.00,,,0.00,WUHU216DAVISVP2,2013-03-13 17:49:00,
2013-03-13 13:54:00,28.8,18.6,30.07,WNW,292,16.0,20.0,65,0.00,,,0.00,WUHU216DAVISVP2,2013-03-13 17:54:00,
2013-03-13 13:59:00,28.6,19.1,30.07,West,261,16.0,28.0,67,0.00,,,0.00,WUHU216DAVISVP2,2013-03-13 17:59:00,
2013-03-13 14:04:00,29.0,19.1,30.07,WSW,250,28.0,28.0,66,0.00,,,0.00,WUHU216DAVISVP2,2013-03-13 18:04:00,
2013-03-13 14:09:00,28.8,17.8,30.07,WNW,289,10.0,28.0,63,0.00,,,0.00,WUHU216DAVISVP2,2013-03-13 18:09:00,
2013-03-13 14:14:00,28.7,17.7,30.08,NW,317,14.0,28.0,63,0.00,,,0.00,WUHU216DAVISVP2,2013-03-13 18:14:00,
2013-03-13 14:19:00,29.0,18.4,30.08,NW,314,14.0,26.0,64,0.00,,,0.00,WUHU216DAVISVP2,2013-03-13 18:19:00,
2013-03-13 14:25:00,29.4,18.8,30.07,NW,316,14.0,24.0,64,0.00,,,0.00,WUHU216DAVISVP2,2013-03-13 18:25:00,
2013-03-13 14:30:00,29.2,18.2,30.08,WNW,282,8.0,26.0,63,0.00,,,0.00,WUHU216DAVISVP2,2013-03-13 18:30:00,
2013-03-13 14:35:00,29.3,18.7,30.08,WNW,286,18.0,26.0,64,0.00,,,0.00,WUHU216DAVISVP2,2013-03-13 18:35:00,
2013-03-13 14:40:00,29.5,18.9,30.08,WNW,284,16.0,26.0,64,0.00,,,0.00,WUHU216DAVISVP2,2013-03-13 18:40:00,
2013-03-13 14:45:00,29.7,19.1,30.07,NW,311,14.0,38.0,64,0.00,,,0.00,WUHU216DAVISVP2,2013-03-13 18:45:00,
2013-03-13 14:50:00,30.0,19.4,30.08,NW,306,6.0,38.0,64,0.00,,,0.00,WUHU216DAVISVP2,2013-03-13 18:50:00,
2013-03-13 14:55:00,30.2,19.5,30.08,NW,307,12.0,28.0,64,0.00,,,0.00,WUHU216DAVISVP2,2013-03-13 18:55:00,
2013-03-13 15:00:00,29.3,18.7,30.08,WNW,286,14.0,28.0,64,0.00,,,0.00,WUHU216DAVISVP2,2013-03-13 19:00:00,
2013-03-13 15:05:00,29.0,18.4,30.08,NNW,338,14.0,24.0,64,0.00,,,0.00,WUHU216DAVISVP2,2013-03-13 19:05:00,
2013-03-13 15:10:00,28.8,18.6,30.08,WNW,302,14.0,36.0,65,0.00,,,0.00,WUHU216DAVISVP2,2013-03-13 19:10:00,
2013-03-13 15:15:00,29.2,19.0,30.09,West,273,16.0,36.0,65,0.00,,,0.00,WUHU216DAVISVP2,2013-03-13 19:15:00,
2013-03-13 15:20:00,29.2,19.3,30.08,WNW,300,14.0,26.0,66,0.00,,,0.00,WUHU216DAVISVP2,2013-03-13 19:20:00,
2013-03-13 15:25:00,28.7,18.8,30.09,WNW,284,24.0,38.0,66,0.00,,,0.00,WUHU216DAVISVP2,2013-03-13 19:25:00,
2013-03-13 15:30:00,28.1,20.0,30.09,WNW,286,14.0,38.0,71,0.00,,,0.00,WUHU216DAVISVP2,2013-03-13 19:30:00,
2013-03-13 15:35:00,28.8,20.3,30.09,NNW,337,18.0,24.0,70,0.00,,,0.00,WUHU216DAVISVP2,2013-03-13 19:35:00,
2013-03-13 15:40:00,29.0,19.8,30.09,NW,320,12.0,24.0,68,0.00,,,0.00,WUHU216DAVISVP2,2013-03-13 19:40:00,
2013-03-13 15:45:00,28.9,20.1,30.09,NW,317,12.0,26.0,69,0.00,,,0.00,WUHU216DAVISVP2,2013-03-13 19:45:00,
2013-03-13 15:50:00,28.9,20.1,30.09,West,273,6.0,26.0,69,0.00,,,0.00,WUHU216DAVISVP2,2013-03-13 19:50:00,
2013-03-13 15:55:00,28.9,20.1,30.09,WNW,286,8.0,22.0,69,0.00,,,0.00,WUHU216DAVISVP2,2013-03-13 19:55:00,
2013-03-13 16:01:00,28.8,20.0,30.09,NW,318,16.0,20.0,69,0.00,,,0.00,WUHU216DAVISVP2,2013-03-13 20:01:00,
2013-03-13 16:06:00,28.4,21.2,30.09,WSW,246,20.0,30.0,74,0.00,,,0.00,WUHU216DAVISVP2,2013-03-13 20:06:00,
2013-03-13 16:11:00,28.2,21.0,30.10,West,274,14.0,30.0,74,0.00,,,0.00,WUHU216DAVISVP2,2013-03-13 20:11:00,
2013-03-13 16:16:00,28.2,20.4,30.10,WNW,290,12.0,32.0,72,0.00,,,0.00,WUHU216DAVISVP2,2013-03-13 20:16:00,
2013-03-13 16:21:00,28.2,20.4,30.10,West,259,14.0,32.0,72,0.00,,,0.00,WUHU216DAVISVP2,2013-03-13 20:21:00,
2013-03-13 16:26:00,27.9,21.6,30.10,NW,305,12.0,28.0,77,0.00,,,0.00,WUHU216DAVISVP2,2013-03-13 20:26:00,
2013-03-13 16:31:00,27.9,21.6,30.11,WSW,255,22.0,28.0,77,0.00,,,0.00,WUHU216DAVISVP2,2013-03-13 20:31:00,
2013-03-13 16:37:00,27.7,22.6,30.11,West,279,14.0,22.0,81,0.00,,,0.00,WUHU216DAVISVP2,2013-03-13 20:37:00,
2013-03-13 16:42:00,27.4,23.2,30.11,WSW,248,12.0,28.0,84,0.00,,,0.00,WUHU216DAVISVP2,2013-03-13 20:42:00,
2013-03-13 16:47:00,26.7,23.0,30.11,NW,309,14.0,28.0,86,0.00,,,0.00,WUHU216DAVISVP2,2013-03-13 20:47:00,
2013-03-13 16:52:00,26.4,23.3,30.12,WNW,291,12.0,28.0,88,0.00,,,0.00,WUHU216DAVISVP2,2013-03-13 20:52:00,
2013-03-13 16:57:00,26.5,23.7,30.12,WNW,289,6.0,28.0,89,0.00,,,0.00,WUHU216DAVISVP2,2013-03-13 20:57:00,
2013-03-13 17:02:00,26.9,23.5,30.12,WSW,250,12.0,20.0,87,0.00,,,0.00,WUHU216DAVISVP2,2013-03-13 21:02:00,
2013-03-13 17:07:00,27.3,23.4,30.12,West,275,8.0,26.0,85,0.00,,,0.00,WUHU216DAVISVP2,2013-03-13 21:07:00,
2013-03-13 17:12:00,27.6,23.4,30.12,NW,325,6.0,26.0,84,0.00,,,0.00,WUHU216DAVISVP2,2013-03-13 21:12:00,
2013-03-13 17:17:00,27.8,23.3,30.12,West,273,4.0,20.0,83,0.00,,,0.00,WUHU216DAVISVP2,2013-03-13 21:17:00,
2013-03-13 17:22:00,27.6,23.1,30.12,NW,316,16.0,26.0,83,0.00,,,0.00,WUHU216DAVISVP2,2013-03-13 21:22:00,
2013-03-13 17:27:00,27.7,23.2,30.12,NNW,342,10.0,26.0,83,0.00,,,0.00,WUHU216DAVISVP2,2013-03-13 21:27:00,
2013-03-13 17:32:00,27.6,23.4,30.12,WNW,284,12.0,24.0,84,0.00,,,0.00,WUHU216DAVISVP2,2013-03-13 21:32:00,
2013-03-13 17:37:00,27.4,23.5,30.12,WNW,298,8.0,22.0,85,0.00,,,0.00,WUHU216DAVISVP2,2013-03-13 21:37:00,
2013-03-13 17:42:00,27.4,23.5,30.13,West,260,12.0,20.0,85,0.00,,,0.00,WUHU216DAVISVP2,2013-03-13 21:42:00,
2013-03-13 17:47:00,27.3,23.4,30.13,NW,304,20.0,26.0,85,0.00,,,0.00,WUHU216DAVISVP2,2013-03-13 21:47:00,
2013-03-13 17:53:00,27.1,23.2,30.13,WSW,248,14.0,26.0,85,0.00,,,0.00,WUHU216DAVISVP2,2013-03-13 21:53:00,
2013-03-13 17:58:00,27.1,22.9,30.13,NNW,331,12.0,32.0,84,0.00,,,0.00,WUHU216DAVISVP2,2013-03-13 21:58:00,
2013-03-13 18:03:00,27.4,23.2,30.13,WNW,297,10.0,32.0,84,0.00,,,0.00,WUHU216DAVISVP2,2013-03-13 22:03:00,
2013-03-13 18:08:00,27.6,22.5,30.13,NW,309,12.0,24.0,81,0.00,,,0.00,WUHU216DAVISVP2,2013-03-13 22:08:00,
2013-03-13 18:13:00,27.4,22.3,30.13,West,277,8.0,24.0,81,0.00,,,0.00,WUHU216DAVISVP2,2013-03-13 22:13:00,
2013-03-13 18:18:00,27.5,21.9,30.13,SW,232,20.0,20.0,79,0.00,,,0.00,WUHU216DAVISVP2,2013-03-13 22:18:00,
2013-03-13 18:23:00,27.7,22.0,30.13,NW,320,14.0,24.0,79,0.00,,,0.00,WUHU216DAVISVP2,2013-03-13 22:23:00,
2013-03-13 18:28:00,28.0,22.0,30.14,NW,305,8.0,22.0,78,0.00,,,0.00,WUHU216DAVISVP2,2013-03-13 22:28:00,
2013-03-13 18:33:00,28.1,22.4,30.14,NW,311,8.0,20.0,79,0.00,,,0.00,WUHU216DAVISVP2,2013-03-13 22:33:00,
2013-03-13 18:38:00,28.2,22.8,30.14,West,259,16.0,24.0,80,0.00,,,0.00,WUHU216DAVISVP2,2013-03-13 22:38:00,
2013-03-13 18:43:00,28.2,22.5,30.14,WNW,302,12.0,24.0,79,0.00,,,0.00,WUHU216DAVISVP2,2013-03-13 22:43:00,
2013-03-13 18:48:00,28.3,22.3,30.14,West,271,8.0,24.0,78,0.00,,,0.00,WUHU216DAVISVP2,2013-03-13 22:48:00,
2013-03-13 18:51:00,28.3,22.6,30.14,West,271,8.0,20.0,79,0.00,,,0.00,WUHU216DAVISVP2,2013-03-13 22:51:00,
2013-03-13 18:56:00,28.4,22.1,30.14,WNW,291,8.0,22.0,77,0.00,,,0.00,WUHU216DAVISVP2,2013-03-13 22:56:00,
2013-03-13 19:02:00,28.5,22.2,30.15,NW,325,8.0,22.0,77,0.00,,,0.00,WUHU216DAVISVP2,2013-03-13 23:02:00,
2013-03-13 19:08:00,28.5,21.6,30.14,WNW,295,4.0,18.0,75,0.00,,,0.00,WUHU216DAVISVP2,2013-03-13 23:08:00,
2013-03-13 19:16:00,28.7,21.8,30.15,NW,313,10.0,20.0,75,0.00,,,0.00,WUHU216DAVISVP2,2013-03-13 23:16:00,
2013-03-13 19:23:00,28.8,21.0,30.15,NW,311,12.0,28.0,72,0.00,,,0.00,WUHU216DAVISVP2,2013-03-13 23:23:00,
2013-03-13 19:30:00,28.8,20.6,30.15,NW,324,8.0,28.0,71,0.00,,,0.00,WUHU216DAVISVP2,2013-03-13 23:30:00,
2013-03-13 19:37:00,28.9,20.7,30.15,NW,315,16.0,24.0,71,0.00,,,0.00,WUHU216DAVISVP2,2013-03-13 23:37:00,
2013-03-13 19:48:00,28.9,20.7,30.16,NW,320,8.0,20.0,71,0.00,,,0.00,WUHU216DAVISVP2,2013-03-13 23:48:00,
2013-03-13 19:53:00,28.8,21.0,30.16,NW,321,4.0,20.0,72,0.00,,,0.00,WUHU216DAVISVP2,2013-03-13 23:53:00,
2013-03-13 19:58:00,28.8,21.0,30.16,WNW,303,18.0,18.0,72,0.00,,,0.00,WUHU216DAVISVP2,2013-03-13 23:58:00,
2013-03-13 20:03:00,28.9,20.7,30.16,NNW,346,4.0,24.0,71,0.00,,,0.00,WUHU216DAVISVP2,2013-03-14 00:03:00,
2013-03-13 20:08:00,28.9,21.4,30.16,NW,324,14.0,24.0,73,0.00,,,0.00,WUHU216DAVISVP2,2013-03-14 00:08:00,
2013-03-13 20:13:00,28.9,21.7,30.16,NW,304,14.0,24.0,74,0.00,,,0.00,WUHU216DAVISVP2,2013-03-14 00:13:00,
2013-03-13 20:18:00,28.9,22.0,30.16,West,277,12.0,24.0,75,0.00,,,0.00,WUHU216DAVISVP2,2013-03-14 00:18:00,
2013-03-13 20:23:00,28.8,22.5,30.16,West,275,8.0,24.0,77,0.00,,,0.00,WUHU216DAVISVP2,2013-03-14 00:23:00,
2013-03-13 20:28:00,28.9,22.6,30.17,NNW,335,8.0,24.0,77,0.00,,,0.00,WUHU216DAVISVP2,2013-03-14 00:28:00,
2013-03-13 20:33:00,28.9,22.6,30.17,NW,308,8.0,18.0,77,0.00,,,0.00,WUHU216DAVISVP2,2013-03-14 00:33:00,
2013-03-13 20:38:00,29.0,22.7,30.17,WSW,258,8.0,22.0,77,0.00,,,0.00,WUHU216DAVISVP2,2013-03-14 00:38:00,
2013-03-13 20:43:00,29.0,22.7,30.17,NW,311,12.0,22.0,77,0.00,,,0.00,WUHU216DAVISVP2,2013-03-14 00:43:00,
2013-03-13 20:48:00,29.0,23.0,30.17,West,281,14.0,22.0,78,0.00,,,0.00,WUHU216DAVISVP2,2013-03-14 00:48:00,
2013-03-13 20:54:00,29.0,22.7,30.17,WNW,282,10.0,30.0,77,0.00,,,0.00,WUHU216DAVISVP2,2013-03-14 00:54:00,
2013-03-13 20:59:00,29.0,22.4,30.17,WNW,292,14.0,30.0,76,0.00,,,0.00,WUHU216DAVISVP2,2013-03-14 00:59:00,
2013-03-13 21:04:00,29.0,22.4,30.17,NW,315,16.0,24.0,76,0.00,,,0.00,WUHU216DAVISVP2,2013-03-14 01:04:00,
2013-03-13 21:09:00,29.0,21.8,30.17,West,273,10.0,24.0,74,0.00,,,0.00,WUHU216DAVISVP2,2013-03-14 01:09:00,
2013-03-13 21:14:00,29.0,21.8,30.17,NNW,330,16.0,24.0,74,0.00,,,0.00,WUHU216DAVISVP2,2013-03-14 01:14:00,
2013-03-13 21:19:00,29.0,21.8,30.17,WNW,295,8.0,22.0,74,0.00,,,0.00,WUHU216DAVISVP2,2013-03-14 01:19:00,
2013-03-13 21:24:00,29.0,21.8,30.17,NW,312,10.0,18.0,74,0.00,,,0.00,WUHU216DAVISVP2,2013-03-14 01:24:00,
2013-03-13 21:29:00,29.0,21.8,30.18,NW,310,6.0,16.0,74,0.00,,,0.00,WUHU216DAVISVP2,2013-03-14 01:29:00,
2013-03-13 21:34:00,29.1,22.2,30.18,WNW,287,6.0,20.0,75,0.00,,,0.00,WUHU216DAVISVP2,2013-03-14 01:34:00,
2013-03-13 21:39:00,29.2,22.6,30.18,NW,323,16.0,24.0,76,0.00,,,0.00,WUHU216DAVISVP2,2013-03-14 01:39:00,
2013-03-13 21:44:00,29.2,22.6,30.18,NW,323,12.0,24.0,76,0.00,,,0.00,WUHU216DAVISVP2,2013-03-14 01:44:00,
2013-03-13 21:49:00,29.2,22.6,30.18,NW,313,8.0,22.0,76,0.00,,,0.00,WUHU216DAVISVP2,2013-03-14 01:49:00,
2013-03-13 21:54:00,29.3,22.4,30.18,NW,321,14.0,26.0,75,0.00,,,0.00,WUHU216DAVISVP2,2013-03-14 01:54:00,
2013-03-13 21:59:00,29.3,22.1,30.18,North,360,6.0,26.0,74,0.00,,,0.00,WUHU216DAVISVP2,2013-03-14 01:59:00,
2013-03-13 22:04:00,29.3,22.1,30.19,West,266,12.0,24.0,74,0.00,,,0.00,WUHU216DAVISVP2,2013-03-14 02:04:00,
2013-03-13 22:09:00,29.4,22.2,30.18,NNW,337,8.0,30.0,74,0.00,,,0.00,WUHU216DAVISVP2,2013-03-14 02:09:00,
2013-03-13 22:14:00,29.5,22.3,30.19,WNW,298,8.0,30.0,74,0.00,,,0.00,WUHU216DAVISVP2,2013-03-14 02:14:00,
2013-03-13 22:19:00,29.6,21.7,30.19,West,277,10.0,18.0,72,0.00,,,0.00,WUHU216DAVISVP2,2013-03-14 02:19:00,
2013-03-13 22:24:00,29.6,21.7,30.19,WNW,292,12.0,26.0,72,0.00,,,0.00,WUHU216DAVISVP2,2013-03-14 02:24:00,
2013-03-13 22:29:00,29.7,21.8,30.19,WNW,290,8.0,26.0,72,0.00,,,0.00,WUHU216DAVISVP2,2013-03-14 02:29:00,
2013-03-13 22:34:00,29.7,21.8,30.19,West,274,10.0,20.0,72,0.00,,,0.00,WUHU216DAVISVP2,2013-03-14 02:34:00,
2013-03-13 22:39:00,29.8,21.9,30.19,WNW,303,10.0,28.0,72,0.00,,,0.00,WUHU216DAVISVP2,2013-03-14 02:39:00,
2013-03-13 22:44:00,29.8,21.9,30.19,NW,318,8.0,28.0,72,0.00,,,0.00,WUHU216DAVISVP2,2013-03-14 02:44:00,
2013-03-13 22:49:00,29.8,22.2,30.20,WNW,299,18.0,20.0,73,0.00,,,0.00,WUHU216DAVISVP2,2013-03-14 02:49:00,
2013-03-13 22:54:00,29.8,21.3,30.20,WNW,287,14.0,22.0,70,0.00,,,0.00,WUHU216DAVISVP2,2013-03-14 02:54:00,
2013-03-13 23:00:00,29.8,20.6,30.20,NW,310,14.0,24.0,68,0.00,,,0.00,WUHU216DAVISVP2,2013-03-14 03:00:00,
2013-03-13 23:05:00,29.7,19.4,30.20,West,277,8.0,24.0,65,0.00,,,0.00,WUHU216DAVISVP2,2013-03-14 03:05:00,
2013-03-13 23:10:00,29.7,19.4,30.20,WNW,292,10.0,28.0,65,0.00,,,0.00,WUHU216DAVISVP2,2013-03-14 03:10:00,
2013-03-13 23:15:00,29.6,19.3,30.21,West,274,16.0,28.0,65,0.00,,,0.00,WUHU216DAVISVP2,2013-03-14 03:15:00,
2013-03-13 23:20:00,29.6,19.3,30.21,NW,305,14.0,26.0,65,0.00,,,0.00,WUHU216DAVISVP2,2013-03-14 03:20:00,
2013-03-13 23:25:00,29.6,19.3,30.21,West,275,4.0,24.0,65,0.00,,,0.00,WUHU216DAVISVP2,2013-03-14 03:25:00,
2013-03-13 23:30:00,29.4,19.1,30.21,NNW,329,8.0,24.0,65,0.00,,,0.00,WUHU216DAVISVP2,2013-03-14 03:30:00,
2013-03-13 23:35:00,29.4,19.1,30.21,WNW,301,6.0,20.0,65,0.00,,,0.00,WUHU216DAVISVP2,2013-03-14 03:35:00,
2013-03-13 23:40:00,29.4,19.5,30.21,NNE,15,6.0,28.0,66,0.00,,,0.00,WUHU216DAVISVP2,2013-03-14 03:40:00,
2013-03-13 23:45:00,29.3,19.4,30.21,NNW,333,6.0,28.0,66,0.00,,,0.00,WUHU216DAVISVP2,2013-03-14 03:45:00,
2013-03-13 23:50:00,29.3,19.4,30.21,NW,306,12.0,20.0,66,0.00,,,0.00,WUHU216DAVISVP2,2013-03-14 03:50:00,
2013-03-13 23:55:00,29.4,19.1,30.21,NW,323,12.0,26.0,65,0.00,,,0.00,WUHU216DAVISVP2,2013-03-14 03:55:00,